Weather History for KCDN - November, 2012

Change the Weather History Date:

Saturday, November 17, 2012

  Actual Average (KSSC) Record (KSSC)
Temperature  
Mean Temperature 47 °F -  
Max Temperature 57 °F 63 °F - (-1)
Min Temperature 37 °F 40 °F - (-1)
Degree Days  
Heating Degree Days 18    
Moisture  
Dew Point 33 °F    
Average Humidity 60    
Maximum Humidity 87    
Minimum Humidity 36    
Precipitation  
Precipitation 0.00 in - - ()
Sea Level Pressure  
Sea Level Pressure 30.40 in    
Wind  
Wind Speed 9 mph (NNE)    
Max Wind Speed 17 mph    
Max Gust Speed 23 mph    
Visibility 10 miles    
Events      
Averages and records for this station are not official NWS values.
T = Trace of Precipitation, MM = Missing Value Source: NWS Daily Summary

Daily Weather History Graph

Daily Weather History Graph

Search for Another Location

Airport or City:

Trip Planner

Search our weather history database for the weather conditions in past years. The results will help you decide how hot, cold, wet, or windy it might be!

Date:

Astronomy

Nov. 17, 2012 Rise Set
Actual Time 6:57 AM EST 5:16 PM EST
Civil Twilight 6:30 AM EST 5:43 PM EST
Nautical Twilight 6:00 AM EST 6:13 PM EST
Astronomical Twilight 5:30 AM EST 6:43 PM EST
Moon 10:41 AM EST (11/17) 9:24 PM EST (11/17)
Length of Visible Light 11h 12m
Length of Day
10h 19m
Waxing Crescent, 20% of the Moon is Illuminated
Nov 17
Waxing Crescent
Nov 20
First Quarter
Nov 28
Full
Dec 6
Last Quarter
Dec 13
New

Hourly Weather History & Observations

Time (EST) Temp. Windchill Dew Point Humidity Pressure Visibility Wind Dir Wind Speed Gust Speed Precip Events Conditions
12:15 AM 42.8 °F 39.3 °F 37.4 °F 81% 30.37 in 10.0 mi NE 5.8 mph - 0.00 in   Clear
12:35 AM 41.0 °F 37.1 °F 35.6 °F 81% 30.37 in 10.0 mi NE 5.8 mph - 0.00 in   Clear
12:55 AM 41.0 °F 37.1 °F 35.6 °F 81% 30.37 in 10.0 mi NE 5.8 mph - 0.00 in   Clear
1:15 AM 39.2 °F 35.9 °F 35.6 °F 87% 30.37 in 10.0 mi North 4.6 mph - 0.00 in   Clear
1:35 AM 39.2 °F 35.9 °F 35.6 °F 87% 30.37 in 10.0 mi NNE 4.6 mph - 0.00 in   Clear
1:55 AM 39.2 °F 35.0 °F 35.6 °F 87% 30.37 in 10.0 mi NE 5.8 mph - 0.00 in   Clear
2:15 AM 39.2 °F 35.9 °F 35.6 °F 87% 30.37 in 10.0 mi NNE 4.6 mph - 0.00 in   Clear
2:35 AM 39.2 °F 35.0 °F 35.6 °F 87% 30.38 in 10.0 mi North 5.8 mph - 0.00 in   Clear
2:55 AM 39.2 °F 35.0 °F 35.6 °F 87% 30.38 in 10.0 mi NNE 5.8 mph - 0.00 in   Clear
3:15 AM 39.2 °F 34.2 °F 35.6 °F 87% 30.38 in 10.0 mi NNE 6.9 mph - 0.00 in   Clear
3:35 AM 39.2 °F 34.2 °F 35.6 °F 87% 30.38 in 10.0 mi NNE 6.9 mph - 0.00 in   Clear
3:55 AM 39.2 °F 33.6 °F 35.6 °F 87% 30.39 in 10.0 mi NNE 8.1 mph - 0.00 in   Clear
4:15 AM 39.2 °F 34.2 °F 35.6 °F 87% 30.38 in 10.0 mi NNE 6.9 mph - 0.00 in   Clear
4:35 AM 39.2 °F 33.6 °F 35.6 °F 87% 30.38 in 10.0 mi NNE 8.1 mph - 0.00 in   Clear
4:55 AM 39.2 °F 33.6 °F 35.6 °F 87% 30.38 in 9.0 mi North 8.1 mph - 0.00 in   Clear
5:15 AM 39.2 °F 33.6 °F 35.6 °F 87% 30.38 in 10.0 mi NNE 8.1 mph - 0.00 in   Clear
5:35 AM 39.2 °F 32.5 °F 33.8 °F 81% 30.38 in 10.0 mi NNE 10.4 mph - 0.00 in   Clear
5:55 AM 39.2 °F 33.6 °F 33.8 °F 81% 30.38 in 10.0 mi NNE 8.1 mph - 0.00 in   Clear
6:15 AM 39.2 °F 33.6 °F 33.8 °F 81% 30.39 in 10.0 mi NNE 8.1 mph - 0.00 in   Clear
6:55 AM 39.2 °F 32.5 °F 33.8 °F 81% 30.40 in 10.0 mi NNE 10.4 mph - 0.00 in   Clear
7:15 AM 37.4 °F 29.8 °F 33.8 °F 87% 30.40 in 9.0 mi NNE 11.5 mph - 0.00 in   Clear
7:35 AM 39.2 °F 32.0 °F 33.8 °F 81% 30.40 in 10.0 mi NNE 11.5 mph - 0.00 in   Clear
7:55 AM 39.2 °F 32.5 °F 33.8 °F 81% 30.41 in 10.0 mi NE 10.4 mph - 0.00 in   Clear
8:15 AM 41.0 °F 34.3 °F 33.8 °F 76% 30.42 in 9.0 mi NE 11.5 mph - 0.00 in   Clear
8:35 AM 42.8 °F 36.2 °F 33.8 °F 70% 30.42 in 10.0 mi NNE 12.7 mph 23.0 mph 0.00 in   Clear
8:55 AM 44.6 °F 37.8 °F 33.8 °F 66% 30.43 in 10.0 mi NNE 15.0 mph - 0.00 in   Clear
9:15 AM 44.6 °F 37.4 °F 32.0 °F 61% 30.43 in 10.0 mi NE 16.1 mph 21.9 mph 0.00 in   Clear
9:35 AM 46.4 °F 41.1 °F 32.0 °F 57% 30.44 in 10.0 mi NE 11.5 mph 19.6 mph 0.00 in   Clear
10:15 AM 46.4 °F 40.7 °F 32.0 °F 57% 30.44 in 10.0 mi NNE 12.7 mph - 0.00 in   Clear
10:35 AM 48.2 °F - 32.0 °F 54% 30.45 in 10.0 mi NE 10.4 mph - 0.00 in   Clear
10:55 AM 48.2 °F - 28.4 °F 46% 30.45 in 10.0 mi NNE 13.8 mph 17.3 mph 0.00 in   Clear
11:15 AM 48.2 °F - 30.2 °F 50% 30.45 in 10.0 mi NE 10.4 mph - 0.00 in   Clear
11:35 AM 50.0 °F - 30.2 °F 47% 30.44 in 10.0 mi NNE 12.7 mph - 0.00 in   Clear
12:55 PM 53.6 °F - 32.0 °F 44% 30.40 in 10.0 mi NNE 10.4 mph 16.1 mph 0.00 in   Clear
1:15 PM 53.6 °F - 30.2 °F 41% 30.40 in 10.0 mi North 10.4 mph - 0.00 in   Clear
1:35 PM 55.4 °F - 30.2 °F 38% 30.39 in 10.0 mi NNE 13.8 mph 17.3 mph 0.00 in   Clear
1:55 PM 57.2 °F - 30.2 °F 36% 30.38 in 10.0 mi NNE 9.2 mph - 0.00 in   Clear
2:15 PM 57.2 °F - 30.2 °F 36% 30.38 in 10.0 mi NNE 13.8 mph 17.3 mph 0.00 in   Clear
2:55 PM 55.4 °F - 30.2 °F 38% 30.37 in 10.0 mi North 9.2 mph - 0.00 in   Clear
3:15 PM 57.2 °F - 32.0 °F 38% 30.37 in 10.0 mi NNE 12.7 mph - 0.00 in   Clear
3:35 PM 57.2 °F - 32.0 °F 38% 30.37 in 10.0 mi NNE 13.8 mph 19.6 mph 0.00 in   Clear
3:55 PM 55.4 °F - 32.0 °F 41% 30.37 in 10.0 mi NNE 13.8 mph - 0.00 in   Clear
4:15 PM 55.4 °F - 32.0 °F 41% 30.37 in 10.0 mi NNE 10.4 mph - 0.00 in   Clear
4:35 PM 55.4 °F - 32.0 °F 41% 30.38 in 10.0 mi NE 6.9 mph - 0.00 in   Clear
4:55 PM 53.6 °F - 32.0 °F 44% 30.38 in 10.0 mi NNE 9.2 mph - 0.00 in   Clear
5:15 PM 53.6 °F - 32.0 °F 44% 30.38 in 10.0 mi NNE 6.9 mph - 0.00 in   Clear
5:35 PM 53.6 °F - 32.0 °F 44% 30.39 in 10.0 mi NNE 4.6 mph - 0.00 in   Clear
5:55 PM 51.8 °F - 32.0 °F 47% 30.39 in 10.0 mi NNE 6.9 mph - 0.00 in   Partly Cloudy
6:15 PM 51.8 °F - 32.0 °F 47% 30.40 in 10.0 mi NE 6.9 mph - 0.00 in   Mostly Cloudy
6:35 PM 51.8 °F - 32.0 °F 47% 30.40 in 10.0 mi NNE 9.2 mph - 0.00 in   Overcast
6:55 PM 53.6 °F - 32.0 °F 44% 30.39 in 10.0 mi NNE 11.5 mph - 0.00 in   Overcast
7:15 PM 53.6 °F - 32.0 °F 44% 30.40 in 10.0 mi NNE 11.5 mph 16.1 mph 0.00 in   Overcast
7:35 PM 53.6 °F - 30.2 °F 41% 30.40 in 10.0 mi NNE 12.7 mph 19.6 mph 0.00 in   Overcast
7:55 PM 53.6 °F - 30.2 °F 41% 30.41 in 10.0 mi NNE 10.4 mph - 0.00 in   Overcast
8:15 PM 53.6 °F - 30.2 °F 41% 30.40 in 10.0 mi NE 15.0 mph 18.4 mph 0.00 in   Overcast
8:35 PM 53.6 °F - 30.2 °F 41% 30.40 in 10.0 mi NNE 13.8 mph 18.4 mph 0.00 in   Overcast
8:55 PM 53.6 °F - 30.2 °F 41% 30.40 in 10.0 mi NNE 13.8 mph 19.6 mph 0.00 in   Mostly Cloudy
9:15 PM 51.8 °F - 32.0 °F 47% 30.39 in 10.0 mi NNE 17.3 mph 21.9 mph 0.00 in   Overcast
9:35 PM 51.8 °F - 30.2 °F 44% 30.40 in 10.0 mi NNE 11.5 mph 19.6 mph 0.00 in   Overcast
9:55 PM 51.8 °F - 30.2 °F 44% 30.40 in 10.0 mi NNE 11.5 mph 20.7 mph 0.00 in   Overcast
10:15 PM 51.8 °F - 30.2 °F 44% 30.40 in 10.0 mi NNE 16.1 mph 21.9 mph 0.00 in   Overcast
10:35 PM 51.8 °F - 32.0 °F 47% 30.41 in 10.0 mi NNE 12.7 mph - 0.00 in   Overcast
10:55 PM 51.8 °F - 32.0 °F 47% 30.41 in 10.0 mi NNE 9.2 mph - 0.00 in   Overcast
11:15 PM 50.0 °F - 32.0 °F 50% 30.41 in 10.0 mi NNE 11.5 mph 17.3 mph 0.00 in   Overcast
11:35 PM 50.0 °F - 32.0 °F 50% 30.41 in 10.0 mi NNE 10.4 mph - 0.00 in   Overcast
11:55 PM 50.0 °F - 32.0 °F 50% 30.41 in 10.0 mi NNE 11.5 mph 18.4 mph 0.00 in   Overcast